目前日期文章:201602 (147)

瀏覽方式: 標題列表 簡短摘要
發表時間 文章標題 人氣 留言
2016-02-29 (2015限量版)Flora by GUCCI Restage 花之舞女性淡香精50ml (0) (0)
2016-02-29 形向Xingxiang 貂毛 眼影刷(小) SNO19 (0) (0)
2016-02-29 ESTEE LAUDER 雅詩蘭黛 白金級極緻珍璽甦活精華 5mlx2 (0) (0)
2016-02-29 Body Temple 康寧福安複方純精油10ml (0) (0)
2016-02-29 L’OCCITANE 歐舒丹 櫻花護手霜75ml (新包裝) (0) (0)
2016-02-28 《ARIEL艾瑞爾》炫金奪目激SoY字棒 -1支.. (0) (0)
2016-02-28 LA ROCHE-POSAY 理膚寶水 溫泉舒緩噴液(50ml)-3 (0) (0)
2016-02-28 (配件)SUKI 櫻姬 光櫻小臉修頰心球 B03 修頰色 原價$480 (0) (0)
2016-02-28 【SWAROVSKI】光芒女性淡香精小香禮盒-5ml-4 (0) (0)
2016-02-28 施華蔻 精油奇跡洗髮露 1250ml (0) (0)
2016-02-27 戴昇金珍藏極品天然祖母綠套組-預購 (0) (0)
2016-02-27 Say it with Scents戀香 朝露玫瑰精油擴香水禮盒200ml (0) (0)
2016-02-27 【愛戀花草 ★ 買一送一】北美太陽向日葵 水氧薰香精油 30ML ★ 水氧薰燈系列 (0) (0)
2016-02-27 【ISA KNOX】亮白完美細緻蜜粉 (0) (0)
2016-02-27 T.KI蜂膠美顏禮盒 6入(加贈T.KI亮白牙膏20g體驗品X2) (0) (0)
2016-02-26 【IEI】野蠻公主極度飽合純色系列-面具紫 (0) (0)
2016-02-26 FCUK 3 HIM 男性淡香水 100ml【贈】愛火系列潮T-1 (0) (0)
2016-02-26 NOV娜芙 防曬隔離乳液SPF30 35ml (0) (0)
2016-02-26 【KTNET】USB3.0 SATA快捷傳輸線 (0) (0)
2016-02-26 【3入優惠】DERMAGOR朵瑪 草本深層潔顏慕絲150ml (0) (0)
2016-02-25 BIOPEUTIC葆療美 果酸調理液4oz (0) (0)
2016-02-25 Dr.Douxi 朵璽 杏仁酸化妝水 150ml 買一送一 (0) (0)
2016-02-25 LA ROCHE-POSAY理膚寶水 全護清爽防曬BB霜(SPF50+PPD18)(02健康色30ml) (0) (0)
2016-02-25 SK-II 青春露10mlX33入 (0) (0)
2016-02-25 【IEI】野蠻公主極度飽合純色系列-裸妝粉膚 (0) (0)
2016-02-24 Anna Sui安娜蘇 紫色安娜蘇女性淡香水(30ml) (0) (0)
2016-02-24 詩丹雅蘭 密集修護精華x1瓶+40片LOUVIER藍銅面膜 (0) (0)
2016-02-24 Whoo 后 拱辰享活膚清氣津精華(10ml)-5+經典簡約菱格紋化妝包(灰) (0) (0)
2016-02-24 (夏日保養大作戰) HeadColor 3D深層洗臉機 (0) (0)
2016-02-24 shu uemura 植村秀 光燦新肌粹(7ml)-3 (0) (0)
2016-02-23 LOVEISDERMA愛斯德瑪 生物纖維面膜(舒緩修護)50ml-1片 (0) (0)
2016-02-23 butyshop髮寶-附著式纖維假髮(單瓶8g) (0) (0)
2016-02-23 【資生堂】MAQuillAGE心機粉鑽甜心粉餅組(4色可選).. (0) (0)
2016-02-23 Mustela慕之恬廊 舒恬良柔舒霜(清爽型) 400ml_2入組 (0) (0)
2016-02-23 Sisley 保濕眼唇凝露(30ml)[無盒版] (0) (0)
2016-02-22 NeoStrata 妮傲絲翠果酸深層保養凝膠 100ml (0) (0)
2016-02-22 【Genuine捷元】BQ660 i5-4460 4核超值Win7Pro迷你電腦 (0) (0)
2016-02-22 JILL STUART RELAX 夜香玫瑰防護精華SPF50+-PA+++(60ml) (1) (0)
2016-02-22 MATRIX 美傑仕 蘆薈保濕洗髮精 400ml (0) (0)
2016-02-22 CLARINS 克蘭詩 超放電大眼精華(3ml)-5 (0) (0)
2016-02-21 LANCOME蘭蔻 肌因賦活眼部精粹15mlx2 (0) (0)
2016-02-21 Elizabeth Arden 綠茶香水沐浴膠 500ml+身體乳500ml+綠茶香氛雪花禮盒(三件組) (0) (0)
2016-02-21 COSME DECORTE黛珂 AQMW晶透角質調理露(150ml) (0) (0)
2016-02-21 (配件)STARSUKI 星顏魔幻珠寶盒 02光透 原價$480 (1) (0)
2016-02-21 KOSE 高絲 雪肌精晶透潤白潔顏皂(100G) (0) (0)
2016-02-20 eHerber伊賀本 養髮家8mlx4-盒 (0) (0)
2016-02-20 KANEBO 佳麗寶 DEWS潤活精純凝露(100g) (0) (0)
2016-02-20 OXICARE 緊緻活顏精華乳30g 醫美級天然抗敏有機精油 玫瑰香氛 (0) (0)
2016-02-20 鍋寶304全不銹鋼電鍋金鑽組 (0) (0)
2016-02-20 索尼 SONY Xperia Z3 Tablet Compact SGP612 平板電腦專用保護貼 (0) (0)
1 23